Tracking 28052 objects as of 24-Sep-2023
HD Live streaming from Space Station
objects crossing your sky now

THORAD DELTA 1 DEB

Track THORAD DELTA 1 DEB now!
10-day predictions


NORAD ID: 8555
Int'l Code: 1974-089CS
Perigee: 1,401.9 km
Apogee: 1,504.8 km
Inclination: 101.4 °
Period: 114.8 minutes
Semi major axis: 7824 km
RCS: 0.0537 m2 (small)
Launch date: November 15, 1974
Source: United States (US)
Launch site: AIR FORCE WESTERN TEST RANGE (AFWTR)

Note: This is SATELLITE DEBRIS
Your satellite tracking list
Your tracking list is empty




NASA's NSSDC Master Catalog

Two Line Element Set (TLE):
1  8555U 74089CS  23266.87780332  .00000802  00000-0  52022-2 0  9991
2  8555 101.3782  43.8608 0065758 191.7116 323.9347 12.54374648228381
Source of the keplerian elements: AFSPC